Regional Weather Roundup
Issued by NWS

Home | Current Version | Previous Version | Graphics & Text | Print | Product List | Glossary On
Versions: 1 2 3 4 5 6 7 8 9 10 11 12 13 14 15 16 17 18 19 20 21 22 23 24 25 26 27 28 29 30 31 32 33 34 35 36 37 38 39 40 41 42 43 44 45 46 47 48 49 50
000
ASUS43 KFSD 281110
RWRSD

WEATHER ROUNDUP FOR SOUTH DAKOTA
NATIONAL WEATHER SERVICE SIOUX FALLS SD
600 AM CDT TUE JUL 28 2015

NOTE: "FAIR" INDICATES FEW OR NO CLOUDS BELOW 12,000 FEET WITH NO
SIGNIFICANT WEATHER AND/OR OBSTRUCTIONS TO VISIBILITY.


SDZ001>005-009-010-012>017-281200-
NORTHWEST AND NORTH CENTRAL SOUTH DAKOTA

CITY           SKY/WX    TMP DP  RH WIND       PRES   REMARKS
BUFFALO          N/A     52  47  83 W14       29.82R
FAITH            N/A     56  48  74 W29G37    29.84R
MOBRIDGE       MOCLDY    63  59  87 W13       29.73R
$$

SDZ012>016-024>037-041>051-057-063-072>074-281200-
SOUTHWEST AND SOUTH CENTRAL SOUTH DAKOTA

CITY           SKY/WX    TMP DP  RH WIND       PRES   REMARKS
RAPID CTY ARPT CLEAR     52  45  77 NW6       29.94R
PIERRE         CLOUDY    63  57  81 NW20G30   29.78R
CUSTER         CLEAR     49  39  68 W9        30.02R
ELLSWORTH AFB  CLEAR     55  45  68 NW10      29.93R
PHILIP         CLEAR     59  52  77 W16G29    29.86R
PINE RIDGE     CLEAR     53  48  83 W3        29.96R
SPEARFISH      FAIR      54  43  66 W15G22    29.98R
WINNER         FAIR      64  58  80 W13       29.83R
$$

SDZ004>011-016>023-039-040-281200-
NORTHEAST SOUTH DAKOTA

CITY           SKY/WX    TMP DP  RH WIND       PRES   REMARKS
ABERDEEN       CLOUDY    68  65  90 SW14      29.70R
WATERTOWN      CLOUDY    68  65  90 SE3       29.69R
BROOKINGS      CLOUDY    70  63  78 SE16G22   29.66F
SISSETON         N/A     67  66  97 SW8       29.65R
$$

SDZ017-020-022-023-036>040-048>070-281200-
SOUTHEAST SOUTH DAKOTA

CITY           SKY/WX    TMP DP  RH WIND       PRES   REMARKS
SIOUX FALLS    CLOUDY    70  66  87 E14G22    29.71F
HURON          CLOUDY    68  67  96 SW9       29.73R
CHAMBERLAIN    CLOUDY    66  65  97 W13       29.77R
MITCHELL       CLOUDY    69  68  96 S8        29.74R
YANKTON        CLOUDY    88  68  51 MISG      29.73R
$$

ABBREVIATIONS USED IN REMARKS
   TC - TEMPERATURE IN CELSIUS
  WCI - WIND CHILL INDEX
   HX - HEAT INDEX
  VSB - VISIBILITY



USA.gov is the U.S. government's official web portal to all federal, state and local government web resources and services.